Time,TemperatureF,DewpointF,PressureIn,WindDirection,WindDirectionDegrees,WindSpeedMPH,WindSpeedGustMPH,Humidity,HourlyPrecipIn,Conditions,Clouds,dailyrainin,SoftwareType,DateUTC
2013-08-24 00:04:00,77.1,70.5,29.97,SSE,147,8.0,11.0,80,0.00,,,0.00,Wunderground v.1.15,2013-08-24 05:04:00,
2013-08-24 00:10:00,77.0,70.7,29.97,SSE,150,7.0,8.0,81,0.00,,,0.00,Wunderground v.1.15,2013-08-24 05:10:00,
2013-08-24 00:16:00,76.7,70.4,29.97,SE,142,6.0,10.0,81,0.00,,,0.00,Wunderground v.1.15,2013-08-24 05:16:00,
2013-08-24 00:22:00,76.5,70.6,29.97,SSE,149,7.0,10.0,82,0.00,,,0.00,Wunderground v.1.15,2013-08-24 05:22:00,
2013-08-24 00:27:00,76.4,70.5,29.97,SSE,167,7.0,10.0,82,0.00,,,0.00,Wunderground v.1.15,2013-08-24 05:27:00,
2013-08-24 00:33:00,76.4,70.9,29.97,South,175,6.0,9.0,83,0.00,,,0.00,Wunderground v.1.15,2013-08-24 05:33:00,
2013-08-24 00:38:00,76.3,70.8,29.97,SSE,158,6.0,9.0,83,0.00,,,0.00,Wunderground v.1.15,2013-08-24 05:38:00,
2013-08-24 00:44:00,76.1,70.6,29.98,SSE,163,6.0,9.0,83,0.00,,,0.00,Wunderground v.1.15,2013-08-24 05:44:00,
2013-08-24 00:49:00,76.1,70.6,29.98,SSE,159,6.0,9.0,83,0.00,,,0.00,Wunderground v.1.15,2013-08-24 05:49:00,
2013-08-24 00:54:00,76.1,70.6,29.98,South,173,6.0,7.0,83,0.00,,,0.00,Wunderground v.1.15,2013-08-24 05:54:00,
2013-08-24 00:59:00,75.9,70.4,29.98,SSE,153,6.0,8.0,83,0.00,,,0.00,Wunderground v.1.15,2013-08-24 05:59:00,
2013-08-24 01:04:00,75.8,70.6,29.98,SSE,157,5.0,7.0,84,0.00,,,0.00,Wunderground v.1.15,2013-08-24 06:04:00,
2013-08-24 01:09:00,75.7,70.5,29.99,South,169,5.0,8.0,84,0.00,,,0.00,Wunderground v.1.15,2013-08-24 06:09:00,
2013-08-24 01:14:00,75.6,70.4,29.98,South,173,5.0,7.0,84,0.00,,,0.00,Wunderground v.1.15,2013-08-24 06:14:00,
2013-08-24 01:20:00,75.5,70.7,29.99,SSE,163,5.0,5.0,85,0.00,,,0.00,Wunderground v.1.15,2013-08-24 06:20:00,
2013-08-24 01:25:00,75.3,70.5,29.99,SSE,164,5.0,7.0,85,0.00,,,0.00,Wunderground v.1.15,2013-08-24 06:25:00,
2013-08-24 01:30:00,75.2,70.4,29.99,SSE,157,5.0,5.0,85,0.00,,,0.00,Wunderground v.1.15,2013-08-24 06:30:00,
2013-08-24 01:35:00,75.1,70.3,29.99,SSE,147,5.0,7.0,85,0.00,,,0.00,Wunderground v.1.15,2013-08-24 06:35:00,
2013-08-24 01:40:00,74.9,70.4,29.99,SSE,150,5.0,6.0,86,0.00,,,0.00,Wunderground v.1.15,2013-08-24 06:40:00,
2013-08-24 01:46:00,74.8,70.3,29.99,SSE,163,5.0,6.0,86,0.00,,,0.00,Wunderground v.1.15,2013-08-24 06:46:00,
2013-08-24 01:52:00,74.5,70.0,29.99,South,171,4.0,5.0,86,0.00,,,0.00,Wunderground v.1.15,2013-08-24 06:52:00,
2013-08-24 01:57:00,74.4,70.3,29.99,South,173,4.0,5.0,87,0.00,,,0.00,Wunderground v.1.15,2013-08-24 06:57:00,
2013-08-24 02:02:00,74.3,70.2,29.99,South,169,4.0,6.0,87,0.00,,,0.00,Wunderground v.1.15,2013-08-24 07:02:00,
2013-08-24 02:08:00,74.3,70.2,29.99,South,177,4.0,7.0,87,0.00,,,0.00,Wunderground v.1.15,2013-08-24 07:08:00,
2013-08-24 02:13:00,74.3,70.2,29.99,South,173,5.0,6.0,87,0.00,,,0.00,Wunderground v.1.15,2013-08-24 07:13:00,
2013-08-24 02:19:00,74.4,69.9,29.99,South,169,5.0,7.0,86,0.00,,,0.00,Wunderground v.1.15,2013-08-24 07:19:00,
2013-08-24 02:24:00,74.5,70.0,29.99,South,178,5.0,7.0,86,0.00,,,0.00,Wunderground v.1.15,2013-08-24 07:24:00,
2013-08-24 02:29:00,74.5,70.0,29.99,South,173,5.0,7.0,86,0.00,,,0.00,Wunderground v.1.15,2013-08-24 07:29:00,
2013-08-24 02:34:00,74.4,69.9,29.99,SSE,166,4.0,6.0,86,0.00,,,0.00,Wunderground v.1.15,2013-08-24 07:34:00,
2013-08-24 02:39:00,74.3,69.8,29.99,South,172,4.0,6.0,86,0.00,,,0.00,Wunderground v.1.15,2013-08-24 07:39:00,
2013-08-24 02:45:00,74.2,70.1,30.00,SSE,165,4.0,7.0,87,0.00,,,0.00,Wunderground v.1.15,2013-08-24 07:45:00,
2013-08-24 02:51:00,74.0,69.9,29.99,South,172,4.0,6.0,87,0.00,,,0.00,Wunderground v.1.15,2013-08-24 07:51:00,
2013-08-24 02:56:00,74.0,69.9,29.99,South,173,5.0,6.0,87,0.00,,,0.00,Wunderground v.1.15,2013-08-24 07:56:00,
2013-08-24 03:01:00,73.8,70.0,30.00,South,171,5.0,6.0,88,0.00,,,0.00,Wunderground v.1.15,2013-08-24 08:01:00,
2013-08-24 03:06:00,73.7,69.9,30.00,South,176,5.0,6.0,88,0.00,,,0.00,Wunderground v.1.15,2013-08-24 08:06:00,
2013-08-24 03:12:00,73.7,69.9,29.99,SSE,163,5.0,6.0,88,0.00,,,0.00,Wunderground v.1.15,2013-08-24 08:12:00,
2013-08-24 03:17:00,73.6,69.8,30.00,SSE,156,4.0,6.0,88,0.00,,,0.00,Wunderground v.1.15,2013-08-24 08:17:00,
2013-08-24 03:22:00,73.4,69.6,30.00,SSE,162,4.0,6.0,88,0.00,,,0.00,Wunderground v.1.15,2013-08-24 08:22:00,
2013-08-24 03:27:00,73.3,69.9,30.00,SSE,165,4.0,6.0,89,0.00,,,0.00,Wunderground v.1.15,2013-08-24 08:27:00,
2013-08-24 03:33:00,73.2,69.8,30.00,South,170,4.0,5.0,89,0.00,,,0.00,Wunderground v.1.15,2013-08-24 08:33:00,
2013-08-24 03:38:00,73.1,69.7,30.00,SSE,165,4.0,6.0,89,0.00,,,0.00,Wunderground v.1.15,2013-08-24 08:38:00,
2013-08-24 03:43:00,72.9,69.8,30.00,SSE,167,4.0,5.0,90,0.00,,,0.00,Wunderground v.1.15,2013-08-24 08:43:00,
2013-08-24 03:49:00,72.6,69.8,30.00,SSE,161,4.0,6.0,91,0.00,,,0.00,Wunderground v.1.15,2013-08-24 08:49:00,
2013-08-24 03:54:00,72.5,69.7,30.00,SSE,161,4.0,7.0,91,0.00,,,0.00,Wunderground v.1.15,2013-08-24 08:54:00,
2013-08-24 03:59:00,72.4,69.6,30.00,SSE,165,5.0,7.0,91,0.00,,,0.00,Wunderground v.1.15,2013-08-24 08:59:00,
2013-08-24 04:05:00,72.3,69.8,30.00,SSE,159,5.0,6.0,92,0.00,,,0.00,Wunderground v.1.15,2013-08-24 09:05:00,
2013-08-24 04:10:00,72.2,69.7,30.00,SSE,165,5.0,5.0,92,0.00,,,0.00,Wunderground v.1.15,2013-08-24 09:10:00,
2013-08-24 04:16:00,72.2,69.7,30.00,SSE,154,5.0,6.0,92,0.00,,,0.00,Wunderground v.1.15,2013-08-24 09:16:00,
2013-08-24 04:22:00,72.0,69.5,30.00,SSE,153,5.0,7.0,92,0.00,,,0.00,Wunderground v.1.15,2013-08-24 09:22:00,
2013-08-24 04:27:00,71.8,69.3,30.00,SSE,164,5.0,7.0,92,0.00,,,0.00,Wunderground v.1.15,2013-08-24 09:27:00,
2013-08-24 04:32:00,71.7,69.3,30.00,SSE,150,5.0,6.0,92,0.00,,,0.00,Wunderground v.1.15,2013-08-24 09:32:00,
2013-08-24 04:37:00,71.5,69.1,30.00,SSE,155,5.0,6.0,92,0.00,,,0.00,Wunderground v.1.15,2013-08-24 09:37:00,
2013-08-24 04:42:00,71.5,69.4,30.00,SSE,152,4.0,5.0,93,0.00,,,0.00,Wunderground v.1.15,2013-08-24 09:42:00,
2013-08-24 04:47:00,71.4,69.3,30.00,SSE,163,4.0,6.0,93,0.00,,,0.00,Wunderground v.1.15,2013-08-24 09:47:00,
2013-08-24 04:52:00,71.5,69.4,30.00,SSE,154,4.0,5.0,93,0.00,,,0.00,Wunderground v.1.15,2013-08-24 09:52:00,
2013-08-24 04:57:00,71.4,69.3,30.00,SSE,153,4.0,5.0,93,0.00,,,0.00,Wunderground v.1.15,2013-08-24 09:57:00,
2013-08-24 05:03:00,71.3,69.2,30.00,SSE,154,4.0,5.0,93,0.00,,,0.00,Wunderground v.1.15,2013-08-24 10:03:00,
2013-08-24 05:08:00,71.3,69.2,30.00,SSE,150,4.0,5.0,93,0.00,,,0.00,Wunderground v.1.15,2013-08-24 10:08:00,
2013-08-24 05:13:00,71.2,69.1,30.00,SSE,149,4.0,5.0,93,0.00,,,0.00,Wunderground v.1.15,2013-08-24 10:13:00,
2013-08-24 05:19:00,71.2,69.1,30.00,SSE,148,4.0,5.0,93,0.00,,,0.00,Wunderground v.1.15,2013-08-24 10:19:00,
2013-08-24 05:24:00,71.1,69.0,30.00,SSE,151,4.0,6.0,93,0.00,,,0.00,Wunderground v.1.15,2013-08-24 10:24:00,
2013-08-24 05:30:00,71.0,68.9,30.00,SSE,150,5.0,6.0,93,0.00,,,0.00,Wunderground v.1.15,2013-08-24 10:30:00,
2013-08-24 05:36:00,71.0,68.9,30.00,SSE,160,5.0,6.0,93,0.00,,,0.00,Wunderground v.1.15,2013-08-24 10:36:00,
2013-08-24 05:41:00,71.1,69.0,30.01,South,169,5.0,6.0,93,0.00,,,0.00,Wunderground v.1.15,2013-08-24 10:41:00,
2013-08-24 05:46:00,71.2,69.1,30.01,SSE,162,5.0,6.0,93,0.00,,,0.00,Wunderground v.1.15,2013-08-24 10:46:00,
2013-08-24 05:52:00,71.3,69.2,30.01,SSE,156,5.0,6.0,93,0.00,,,0.00,Wunderground v.1.15,2013-08-24 10:52:00,
2013-08-24 05:58:00,71.2,68.8,30.01,SSE,147,5.0,6.0,92,0.00,,,0.00,Wunderground v.1.15,2013-08-24 10:58:00,
2013-08-24 06:03:00,71.2,68.8,30.01,SSE,157,5.0,7.0,92,0.00,,,0.00,Wunderground v.1.15,2013-08-24 11:03:00,
2013-08-24 06:08:00,71.2,68.8,30.01,SSE,157,5.0,7.0,92,0.00,,,0.00,Wunderground v.1.15,2013-08-24 11:08:00,
2013-08-24 06:13:00,71.2,68.8,30.01,SSE,159,5.0,6.0,92,0.00,,,0.00,Wunderground v.1.15,2013-08-24 11:13:00,
2013-08-24 06:18:00,71.2,68.8,30.01,SSE,152,5.0,6.0,92,0.00,,,0.00,Wunderground v.1.15,2013-08-24 11:18:00,
2013-08-24 06:24:00,71.1,68.7,30.01,SE,144,5.0,7.0,92,0.00,,,0.00,Wunderground v.1.15,2013-08-24 11:24:00,
2013-08-24 06:29:00,71.0,68.6,30.01,SSE,154,5.0,7.0,92,0.00,,,0.00,Wunderground v.1.15,2013-08-24 11:29:00,
2013-08-24 06:34:00,71.1,68.7,30.01,SSE,161,5.0,7.0,92,0.00,,,0.00,Wunderground v.1.15,2013-08-24 11:34:00,
2013-08-24 06:40:00,71.1,68.7,30.01,SSE,161,5.0,7.0,92,0.00,,,0.00,Wunderground v.1.15,2013-08-24 11:40:00,
2013-08-24 06:45:00,71.2,68.8,30.01,SSE,163,5.0,7.0,92,0.00,,,0.00,Wunderground v.1.15,2013-08-24 11:45:00,
2013-08-24 06:50:00,71.1,68.7,30.02,SSE,167,5.0,6.0,92,0.00,,,0.00,Wunderground v.1.15,2013-08-24 11:50:00,
2013-08-24 06:55:00,71.1,68.7,30.02,SSE,163,5.0,7.0,92,0.00,,,0.00,Wunderground v.1.15,2013-08-24 11:55:00,
2013-08-24 07:01:00,71.1,68.7,30.02,SSE,167,5.0,6.0,92,0.00,,,0.00,Wunderground v.1.15,2013-08-24 12:01:00,
2013-08-24 07:06:00,71.1,68.7,30.02,SSE,167,5.0,6.0,92,0.00,,,0.00,Wunderground v.1.15,2013-08-24 12:06:00,
2013-08-24 07:11:00,71.1,68.7,30.02,SE,145,5.0,7.0,92,0.00,,,0.00,Wunderground v.1.15,2013-08-24 12:11:00,
2013-08-24 07:16:00,71.1,68.7,30.02,South,169,6.0,7.0,92,0.00,,,0.00,Wunderground v.1.15,2013-08-24 12:16:00,
2013-08-24 07:22:00,71.2,68.8,30.02,SSE,166,5.0,7.0,92,0.00,,,0.00,Wunderground v.1.15,2013-08-24 12:22:00,
2013-08-24 07:28:00,71.3,68.9,30.02,SSE,162,6.0,9.0,92,0.00,,,0.00,Wunderground v.1.15,2013-08-24 12:28:00,
2013-08-24 07:33:00,71.5,69.1,30.03,SSE,163,6.0,7.0,92,0.00,,,0.00,Wunderground v.1.15,2013-08-24 12:33:00,
2013-08-24 07:38:00,71.6,69.2,30.03,South,173,5.0,8.0,92,0.00,,,0.00,Wunderground v.1.15,2013-08-24 12:38:00,
2013-08-24 07:44:00,71.9,69.1,30.03,SSE,165,6.0,8.0,91,0.00,,,0.00,Wunderground v.1.15,2013-08-24 12:44:00,
2013-08-24 07:50:00,72.1,69.3,30.03,SSE,161,6.0,6.0,91,0.00,,,0.00,Wunderground v.1.15,2013-08-24 12:50:00,
2013-08-24 07:56:00,72.4,69.6,30.03,SSE,150,6.0,8.0,91,0.00,,,0.00,Wunderground v.1.15,2013-08-24 12:56:00,
2013-08-24 08:02:00,72.7,69.6,30.03,SSE,153,6.0,9.0,90,0.00,,,0.00,Wunderground v.1.15,2013-08-24 13:02:00,
2013-08-24 08:07:00,73.0,69.6,30.04,South,169,7.0,10.0,89,0.00,,,0.00,Wunderground v.1.15,2013-08-24 13:07:00,
2013-08-24 08:12:00,73.4,70.0,30.04,SSE,165,7.0,11.0,89,0.00,,,0.00,Wunderground v.1.15,2013-08-24 13:12:00,
2013-08-24 08:17:00,73.9,70.1,30.04,SSE,156,7.0,12.0,88,0.00,,,0.00,Wunderground v.1.15,2013-08-24 13:17:00,
2013-08-24 08:23:00,74.4,70.3,30.04,South,180,7.0,10.0,87,0.00,,,0.00,Wunderground v.1.15,2013-08-24 13:23:00,
2013-08-24 08:28:00,74.6,70.1,30.04,SSE,165,8.0,10.0,86,0.00,,,0.00,Wunderground v.1.15,2013-08-24 13:28:00,
2013-08-24 08:34:00,75.1,70.6,30.04,SSE,165,7.0,11.0,86,0.00,,,0.00,Wunderground v.1.15,2013-08-24 13:34:00,
2013-08-24 08:40:00,75.5,70.7,30.04,SSE,165,7.0,9.0,85,0.00,,,0.00,Wunderground v.1.15,2013-08-24 13:40:00,
2013-08-24 08:45:00,75.9,70.7,30.04,South,174,8.0,13.0,84,0.00,,,0.00,Wunderground v.1.15,2013-08-24 13:45:00,
2013-08-24 08:51:00,76.4,70.9,30.04,South,173,8.0,11.0,83,0.00,,,0.00,Wunderground v.1.15,2013-08-24 13:51:00,
2013-08-24 08:57:00,76.9,71.7,30.04,South,169,8.0,11.0,84,0.00,,,0.00,Wunderground v.1.15,2013-08-24 13:57:00,
2013-08-24 09:02:00,77.2,70.9,30.04,SSE,159,8.0,11.0,81,0.00,,,0.00,Wunderground v.1.15,2013-08-24 14:02:00,
2013-08-24 09:08:00,77.6,71.3,30.04,SSE,148,9.0,12.0,81,0.00,,,0.00,Wunderground v.1.15,2013-08-24 14:08:00,
2013-08-24 09:13:00,78.0,71.3,30.04,SSE,167,9.0,14.0,80,0.00,,,0.00,Wunderground v.1.15,2013-08-24 14:13:00,
2013-08-24 09:18:00,78.3,71.2,30.04,SSE,163,10.0,14.0,79,0.00,,,0.00,Wunderground v.1.15,2013-08-24 14:18:00,
2013-08-24 09:23:00,78.7,71.6,30.04,South,177,11.0,13.0,79,0.00,,,0.00,Wunderground v.1.15,2013-08-24 14:23:00,
2013-08-24 09:29:00,78.9,71.5,30.04,SSE,165,10.0,13.0,78,0.00,,,0.00,Wunderground v.1.15,2013-08-24 14:29:00,
2013-08-24 09:34:00,79.2,71.4,30.04,SSE,159,9.0,13.0,77,0.00,,,0.00,Wunderground v.1.15,2013-08-24 14:34:00,
2013-08-24 09:39:00,79.6,71.4,30.04,South,174,9.0,14.0,76,0.00,,,0.00,Wunderground v.1.15,2013-08-24 14:39:00,
2013-08-24 09:45:00,80.1,71.8,30.04,South,175,10.0,13.0,76,0.00,,,0.00,Wunderground v.1.15,2013-08-24 14:45:00,
2013-08-24 09:50:00,80.3,72.0,30.04,SSE,162,10.0,10.0,76,0.00,,,0.00,Wunderground v.1.15,2013-08-24 14:50:00,
2013-08-24 09:55:00,80.8,71.3,30.04,SSE,155,10.0,15.0,73,0.00,,,0.00,Wunderground v.1.15,2013-08-24 14:55:00,
2013-08-24 10:01:00,81.2,72.5,30.04,South,177,10.0,11.0,75,0.00,,,0.00,Wunderground v.1.15,2013-08-24 15:01:00,
2013-08-24 10:06:00,81.8,72.3,30.04,SSW,196,10.0,15.0,73,0.00,,,0.00,Wunderground v.1.15,2013-08-24 15:06:00,
2013-08-24 10:12:00,82.2,72.3,30.04,South,171,9.0,13.0,72,0.00,,,0.00,Wunderground v.1.15,2013-08-24 15:12:00,
2013-08-24 10:17:00,82.5,71.7,30.04,SSW,196,9.0,13.0,70,0.00,,,0.00,Wunderground v.1.15,2013-08-24 15:17:00,
2013-08-24 10:23:00,82.7,72.3,30.04,South,182,10.0,13.0,71,0.00,,,0.00,Wunderground v.1.15,2013-08-24 15:23:00,
2013-08-24 10:28:00,83.4,72.2,30.04,SSE,166,9.0,15.0,69,0.00,,,0.00,Wunderground v.1.15,2013-08-24 15:28:00,
2013-08-24 10:34:00,83.5,71.8,30.05,SSE,163,10.0,13.0,68,0.00,,,0.00,Wunderground v.1.15,2013-08-24 15:34:00,
2013-08-24 10:39:00,83.6,71.5,30.05,SSE,163,11.0,15.0,67,0.00,,,0.00,Wunderground v.1.15,2013-08-24 15:39:00,
2013-08-24 10:44:00,83.7,71.6,30.05,South,184,12.0,15.0,67,0.00,,,0.00,Wunderground v.1.15,2013-08-24 15:44:00,
2013-08-24 10:50:00,84.2,72.5,30.05,South,190,11.0,11.0,68,0.00,,,0.00,Wunderground v.1.15,2013-08-24 15:50:00,
2013-08-24 10:55:00,84.7,71.6,30.05,South,184,10.0,16.0,65,0.00,,,0.00,Wunderground v.1.15,2013-08-24 15:55:00,
2013-08-24 11:01:00,84.8,72.6,30.05,South,176,11.0,14.0,67,0.00,,,0.00,Wunderground v.1.15,2013-08-24 16:01:00,
2013-08-24 11:06:00,85.0,71.5,30.05,SSE,167,11.0,15.0,64,0.00,,,0.00,Wunderground v.1.15,2013-08-24 16:06:00,
2013-08-24 11:12:00,85.2,71.2,30.05,SSE,163,11.0,15.0,63,0.00,,,0.00,Wunderground v.1.15,2013-08-24 16:12:00,
2013-08-24 11:17:00,85.4,71.8,30.05,South,183,11.0,15.0,64,0.00,,,0.00,Wunderground v.1.15,2013-08-24 16:17:00,
2013-08-24 11:23:00,85.7,71.7,30.05,SSE,161,11.0,15.0,63,0.00,,,0.00,Wunderground v.1.15,2013-08-24 16:23:00,
2013-08-24 11:29:00,86.0,71.5,30.05,SSW,192,12.0,17.0,62,0.00,,,0.00,Wunderground v.1.15,2013-08-24 16:29:00,
2013-08-24 11:35:00,86.2,71.2,30.05,South,178,12.0,18.0,61,0.00,,,0.00,Wunderground v.1.15,2013-08-24 16:35:00,
2013-08-24 11:40:00,86.4,72.8,30.05,SE,144,11.0,11.0,64,0.00,,,0.00,Wunderground v.1.15,2013-08-24 16:40:00,
2013-08-24 11:46:00,86.7,72.1,30.05,SE,145,9.0,15.0,62,0.00,,,0.00,Wunderground v.1.15,2013-08-24 16:46:00,
2013-08-24 11:51:00,86.9,71.8,30.05,SSE,163,10.0,14.0,61,0.00,,,0.00,Wunderground v.1.15,2013-08-24 16:51:00,
2013-08-24 11:56:00,87.2,71.6,30.05,SSE,165,11.0,16.0,60,0.00,,,0.00,Wunderground v.1.15,2013-08-24 16:56:00,
2013-08-24 12:02:00,87.4,72.3,30.05,SSE,154,11.0,15.0,61,0.00,,,0.00,Wunderground v.1.15,2013-08-24 17:02:00,
2013-08-24 12:07:00,87.7,72.1,30.05,SSW,192,11.0,15.0,60,0.00,,,0.00,Wunderground v.1.15,2013-08-24 17:07:00,
2013-08-24 12:12:00,87.8,72.7,30.05,SSE,167,10.0,16.0,61,0.00,,,0.00,Wunderground v.1.15,2013-08-24 17:12:00,
2013-08-24 12:18:00,88.1,70.9,30.04,SSW,200,10.0,16.0,57,0.00,,,0.00,Wunderground v.1.15,2013-08-24 17:18:00,
2013-08-24 12:23:00,88.1,72.5,30.04,SSW,203,11.0,19.0,60,0.00,,,0.00,Wunderground v.1.15,2013-08-24 17:23:00,
2013-08-24 12:28:00,88.5,72.8,30.04,South,171,11.0,19.0,60,0.00,,,0.00,Wunderground v.1.15,2013-08-24 17:28:00,
2013-08-24 12:34:00,88.6,73.4,30.04,SSE,158,11.0,17.0,61,0.00,,,0.00,Wunderground v.1.15,2013-08-24 17:34:00,
2013-08-24 12:40:00,88.9,73.2,30.04,South,179,11.0,15.0,60,0.00,,,0.00,Wunderground v.1.15,2013-08-24 17:40:00,
2013-08-24 12:45:00,89.0,72.3,30.04,SSE,150,11.0,17.0,58,0.00,,,0.00,Wunderground v.1.15,2013-08-24 17:45:00,
2013-08-24 12:51:00,89.0,72.3,30.03,SSE,159,12.0,14.0,58,0.00,,,0.00,Wunderground v.1.15,2013-08-24 17:51:00,
2013-08-24 12:56:00,89.0,71.8,30.03,South,171,13.0,21.0,57,0.00,,,0.00,Wunderground v.1.15,2013-08-24 17:56:00,
2013-08-24 13:02:00,89.2,72.0,30.03,South,176,13.0,14.0,57,0.00,,,0.00,Wunderground v.1.15,2013-08-24 18:02:00,
2013-08-24 13:07:00,89.6,72.3,30.03,South,174,13.0,18.0,57,0.00,,,0.00,Wunderground v.1.15,2013-08-24 18:07:00,
2013-08-24 13:13:00,89.9,73.1,30.03,SSE,155,13.0,19.0,58,0.00,,,0.00,Wunderground v.1.15,2013-08-24 18:13:00,
2013-08-24 13:19:00,90.0,72.2,30.03,SSE,153,12.0,19.0,56,0.00,,,0.00,Wunderground v.1.15,2013-08-24 18:19:00,
2013-08-24 13:24:00,90.1,71.8,30.02,SE,144,12.0,16.0,55,0.00,,,0.00,Wunderground v.1.15,2013-08-24 18:24:00,
2013-08-24 13:30:00,90.3,73.0,30.02,South,175,12.0,12.0,57,0.00,,,0.00,Wunderground v.1.15,2013-08-24 18:30:00,
2013-08-24 13:36:00,90.5,71.0,30.02,South,180,12.0,20.0,53,0.00,,,0.00,Wunderground v.1.15,2013-08-24 18:36:00,
2013-08-24 13:41:00,90.4,72.6,30.02,SE,135,12.0,13.0,56,0.00,,,0.00,Wunderground v.1.15,2013-08-24 18:41:00,
2013-08-24 13:47:00,90.9,72.0,30.02,SSE,153,11.0,18.0,54,0.00,,,0.00,Wunderground v.1.15,2013-08-24 18:47:00,
2013-08-24 13:52:00,91.2,71.7,30.02,SE,138,12.0,15.0,53,0.00,,,0.00,Wunderground v.1.15,2013-08-24 18:52:00,
2013-08-24 13:58:00,91.3,72.3,30.02,SSE,168,11.0,16.0,54,0.00,,,0.00,Wunderground v.1.15,2013-08-24 18:58:00,
2013-08-24 14:03:00,91.1,72.1,30.02,SE,146,12.0,18.0,54,0.00,,,0.00,Wunderground v.1.15,2013-08-24 19:03:00,
2013-08-24 14:09:00,91.4,72.4,30.02,SSE,150,12.0,20.0,54,0.00,,,0.00,Wunderground v.1.15,2013-08-24 19:09:00,
2013-08-24 14:14:00,91.5,72.5,30.02,SE,146,12.0,20.0,54,0.00,,,0.00,Wunderground v.1.15,2013-08-24 19:14:00,
2013-08-24 14:20:00,91.6,71.5,30.02,SE,132,13.0,13.0,52,0.00,,,0.00,Wunderground v.1.15,2013-08-24 19:20:00,
2013-08-24 14:25:00,91.8,70.5,30.02,SSE,155,12.0,19.0,50,0.00,,,0.00,Wunderground v.1.15,2013-08-24 19:25:00,
2013-08-24 14:31:00,91.7,71.0,30.01,SSE,165,12.0,20.0,51,0.00,,,0.00,Wunderground v.1.15,2013-08-24 19:31:00,
2013-08-24 14:37:00,91.8,70.5,30.01,South,169,12.0,20.0,50,0.00,,,0.00,Wunderground v.1.15,2013-08-24 19:37:00,
2013-08-24 14:42:00,92.4,71.6,30.01,South,183,12.0,16.0,51,0.00,,,0.00,Wunderground v.1.15,2013-08-24 19:42:00,
2013-08-24 14:48:00,92.3,70.4,30.01,SSE,159,13.0,20.0,49,0.00,,,0.00,Wunderground v.1.15,2013-08-24 19:48:00,
2013-08-24 14:53:00,92.4,70.5,30.01,SSE,163,13.0,22.0,49,0.00,,,0.00,Wunderground v.1.15,2013-08-24 19:53:00,
2013-08-24 14:59:00,92.5,71.2,30.01,SSE,167,12.0,22.0,50,0.00,,,0.00,Wunderground v.1.15,2013-08-24 19:59:00,
2013-08-24 15:05:00,92.7,71.3,30.01,South,180,13.0,19.0,50,0.00,,,0.00,Wunderground v.1.15,2013-08-24 20:05:00,
2013-08-24 15:11:00,92.7,71.3,30.00,SSE,150,13.0,20.0,50,0.00,,,0.00,Wunderground v.1.15,2013-08-24 20:11:00,
2013-08-24 15:16:00,92.7,70.1,30.00,South,173,14.0,22.0,48,0.00,,,0.00,Wunderground v.1.15,2013-08-24 20:16:00,
2013-08-24 15:22:00,92.9,71.5,30.00,SSE,153,12.0,14.0,50,0.00,,,0.00,Wunderground v.1.15,2013-08-24 20:22:00,
2013-08-24 15:27:00,93.3,71.3,30.00,SSE,153,10.0,15.0,49,0.00,,,0.00,Wunderground v.1.15,2013-08-24 20:27:00,
2013-08-24 15:33:00,93.0,69.2,30.00,South,183,11.0,16.0,46,0.00,,,0.00,Wunderground v.1.15,2013-08-24 20:33:00,
2013-08-24 15:38:00,93.2,72.4,30.00,South,178,11.0,16.0,51,0.00,,,0.00,Wunderground v.1.15,2013-08-24 20:38:00,
2013-08-24 15:44:00,93.1,69.9,29.99,SSE,166,12.0,18.0,47,0.00,,,0.00,Wunderground v.1.15,2013-08-24 20:44:00,
2013-08-24 15:49:00,93.0,69.2,29.99,SSE,168,13.0,20.0,46,0.00,,,0.00,Wunderground v.1.15,2013-08-24 20:49:00,
2013-08-24 15:56:00,93.1,69.3,29.99,SSE,155,12.0,16.0,46,0.00,,,0.00,Wunderground v.1.15,2013-08-24 20:56:00,
2013-08-24 16:01:00,92.5,69.3,29.99,SSE,159,12.0,14.0,47,0.00,,,0.00,Wunderground v.1.15,2013-08-24 21:01:00,
2013-08-24 16:07:00,92.0,69.5,29.99,SSE,165,12.0,17.0,48,0.00,,,0.00,Wunderground v.1.15,2013-08-24 21:07:00,
2013-08-24 16:12:00,91.7,68.6,29.99,SSE,161,12.0,16.0,47,0.00,,,0.00,Wunderground v.1.15,2013-08-24 21:12:00,
2013-08-24 16:18:00,92.3,70.4,29.98,SSE,150,12.0,18.0,49,0.00,,,0.00,Wunderground v.1.15,2013-08-24 21:18:00,
2013-08-24 16:23:00,92.7,69.5,29.98,South,188,13.0,15.0,47,0.00,,,0.00,Wunderground v.1.15,2013-08-24 21:23:00,
2013-08-24 16:28:00,92.9,70.3,29.98,South,169,13.0,17.0,48,0.00,,,0.00,Wunderground v.1.15,2013-08-24 21:28:00,
2013-08-24 16:34:00,92.9,70.9,29.98,SSE,161,13.0,15.0,49,0.00,,,0.00,Wunderground v.1.15,2013-08-24 21:34:00,
2013-08-24 16:40:00,92.8,70.8,29.98,SSE,168,12.0,12.0,49,0.00,,,0.00,Wunderground v.1.15,2013-08-24 21:40:00,
2013-08-24 16:45:00,92.7,70.7,29.98,SSE,155,12.0,15.0,49,0.00,,,0.00,Wunderground v.1.15,2013-08-24 21:45:00,
2013-08-24 16:51:00,92.7,69.5,29.98,South,174,12.0,20.0,47,0.00,,,0.00,Wunderground v.1.15,2013-08-24 21:51:00,
2013-08-24 16:57:00,92.8,73.7,29.98,South,171,13.0,20.0,54,0.00,,,0.00,Wunderground v.1.15,2013-08-24 21:57:00,
2013-08-24 17:03:00,92.3,72.7,29.98,SSE,157,13.0,21.0,53,0.00,,,0.00,Wunderground v.1.15,2013-08-24 22:03:00,
2013-08-24 17:08:00,92.1,73.1,29.98,SE,136,14.0,21.0,54,0.00,,,0.00,Wunderground v.1.15,2013-08-24 22:08:00,
2013-08-24 17:13:00,91.9,71.8,29.98,SE,142,16.0,21.0,52,0.00,,,0.00,Wunderground v.1.15,2013-08-24 22:13:00,
2013-08-24 17:19:00,91.9,71.8,29.98,SE,144,16.0,22.0,52,0.00,,,0.00,Wunderground v.1.15,2013-08-24 22:19:00,
2013-08-24 17:24:00,91.8,72.2,29.98,SE,140,15.0,26.0,53,0.00,,,0.00,Wunderground v.1.15,2013-08-24 22:24:00,
2013-08-24 17:30:00,91.7,72.1,29.98,SE,142,15.0,22.0,53,0.00,,,0.00,Wunderground v.1.15,2013-08-24 22:30:00,
2013-08-24 17:36:00,91.5,73.1,29.98,SE,139,14.0,22.0,55,0.00,,,0.00,Wunderground v.1.15,2013-08-24 22:36:00,
2013-08-24 17:41:00,91.2,72.2,29.98,SE,131,13.0,18.0,54,0.00,,,0.00,Wunderground v.1.15,2013-08-24 22:41:00,
2013-08-24 17:47:00,91.0,72.6,29.98,ESE,123,15.0,21.0,55,0.00,,,0.00,Wunderground v.1.15,2013-08-24 22:47:00,
2013-08-24 17:52:00,90.8,72.4,29.98,SE,138,15.0,20.0,55,0.00,,,0.00,Wunderground v.1.15,2013-08-24 22:52:00,
2013-08-24 17:58:00,90.6,72.8,29.98,SE,128,15.0,20.0,56,0.00,,,0.00,Wunderground v.1.15,2013-08-24 22:58:00,
2013-08-24 18:04:00,90.3,71.9,29.98,SE,125,15.0,17.0,55,0.00,,,0.00,Wunderground v.1.15,2013-08-24 23:04:00,
2013-08-24 18:11:00,90.2,72.4,29.98,SE,130,14.0,18.0,56,0.00,,,0.00,Wunderground v.1.15,2013-08-24 23:11:00,
2013-08-24 18:16:00,90.1,72.3,29.97,SE,136,15.0,21.0,56,0.00,,,0.00,Wunderground v.1.15,2013-08-24 23:16:00,
2013-08-24 18:22:00,89.8,72.0,29.97,SE,137,14.0,18.0,56,0.00,,,0.00,Wunderground v.1.15,2013-08-24 23:22:00,
2013-08-24 18:28:00,89.7,71.9,29.98,SSE,148,14.0,20.0,56,0.00,,,0.00,Wunderground v.1.15,2013-08-24 23:28:00,
2013-08-24 18:34:00,89.5,71.7,29.98,SE,140,14.0,19.0,56,0.00,,,0.00,Wunderground v.1.15,2013-08-24 23:34:00,
2013-08-24 18:39:00,89.4,72.2,29.98,SSE,156,15.0,20.0,57,0.00,,,0.00,Wunderground v.1.15,2013-08-24 23:39:00,
2013-08-24 18:44:00,89.3,72.1,29.98,SE,144,14.0,20.0,57,0.00,,,0.00,Wunderground v.1.15,2013-08-24 23:44:00,
2013-08-24 18:50:00,89.0,71.8,29.98,SE,140,14.0,17.0,57,0.00,,,0.00,Wunderground v.1.15,2013-08-24 23:50:00,
2013-08-24 18:56:00,88.8,72.1,29.98,SSE,147,13.0,20.0,58,0.00,,,0.00,Wunderground v.1.15,2013-08-24 23:56:00,
2013-08-24 19:01:00,88.6,71.9,29.98,SE,139,14.0,19.0,58,0.00,,,0.00,Wunderground v.1.15,2013-08-25 00:01:00,
2013-08-24 19:06:00,88.4,72.2,29.98,SE,138,13.0,19.0,59,0.00,,,0.00,Wunderground v.1.15,2013-08-25 00:06:00,
2013-08-24 19:12:00,88.1,72.0,29.98,SSE,150,11.0,15.0,59,0.00,,,0.00,Wunderground v.1.15,2013-08-25 00:12:00,
2013-08-24 19:17:00,87.7,71.1,29.98,SE,138,12.0,17.0,58,0.00,,,0.00,Wunderground v.1.15,2013-08-25 00:17:00,
2013-08-24 19:23:00,87.4,71.8,29.98,SE,138,13.0,16.0,60,0.00,,,0.00,Wunderground v.1.15,2013-08-25 00:23:00,
2013-08-24 19:28:00,87.1,71.5,29.98,SE,135,11.0,17.0,60,0.00,,,0.00,Wunderground v.1.15,2013-08-25 00:28:00,
2013-08-24 19:34:00,86.8,71.2,29.98,SE,137,12.0,19.0,60,0.00,,,0.00,Wunderground v.1.15,2013-08-25 00:34:00,
2013-08-24 19:40:00,86.4,71.4,29.98,SE,140,11.0,11.0,61,0.00,,,0.00,Wunderground v.1.15,2013-08-25 00:40:00,
2013-08-24 19:45:00,86.1,71.6,29.98,SE,146,10.0,15.0,62,0.00,,,0.00,Wunderground v.1.15,2013-08-25 00:45:00,
2013-08-24 19:51:00,85.7,71.7,29.98,SE,136,10.0,11.0,63,0.00,,,0.00,Wunderground v.1.15,2013-08-25 00:51:00,
2013-08-24 19:56:00,85.4,71.8,29.99,SE,131,9.0,12.0,64,0.00,,,0.00,Wunderground v.1.15,2013-08-25 00:56:00,
2013-08-24 20:01:00,84.9,71.8,29.99,SE,134,8.0,9.0,65,0.00,,,0.00,Wunderground v.1.15,2013-08-25 01:01:00,
2013-08-24 20:07:00,84.6,72.0,29.99,SE,143,8.0,11.0,66,0.00,,,0.00,Wunderground v.1.15,2013-08-25 01:07:00,
2013-08-24 20:12:00,84.2,72.5,29.99,SE,134,8.0,10.0,68,0.00,,,0.00,Wunderground v.1.15,2013-08-25 01:12:00,
2013-08-24 20:17:00,83.8,72.1,29.99,SE,144,7.0,10.0,68,0.00,,,0.00,Wunderground v.1.15,2013-08-25 01:17:00,
2013-08-24 20:22:00,83.5,72.3,29.99,SE,143,8.0,13.0,69,0.00,,,0.00,Wunderground v.1.15,2013-08-25 01:22:00,
2013-08-24 20:28:00,83.3,72.1,29.99,SE,142,9.0,14.0,69,0.00,,,0.00,Wunderground v.1.15,2013-08-25 01:28:00,
2013-08-24 20:34:00,83.2,72.4,29.99,SE,139,10.0,13.0,70,0.00,,,0.00,Wunderground v.1.15,2013-08-25 01:34:00,
2013-08-24 20:39:00,83.0,72.2,30.00,SE,140,9.0,14.0,70,0.00,,,0.00,Wunderground v.1.15,2013-08-25 01:39:00,
2013-08-24 20:45:00,82.7,72.3,30.00,SE,135,9.0,12.0,71,0.00,,,0.00,Wunderground v.1.15,2013-08-25 01:45:00,
2013-08-24 20:51:00,82.4,72.0,30.00,SE,135,9.0,12.0,71,0.00,,,0.00,Wunderground v.1.15,2013-08-25 01:51:00,
2013-08-24 20:56:00,82.3,72.0,30.01,SE,136,8.0,13.0,71,0.00,,,0.00,Wunderground v.1.15,2013-08-25 01:56:00,
2013-08-24 21:02:00,82.0,72.1,30.01,SE,140,8.0,11.0,72,0.00,,,0.00,Wunderground v.1.15,2013-08-25 02:02:00,
2013-08-24 21:08:00,81.8,71.9,30.01,SE,134,8.0,12.0,72,0.00,,,0.00,Wunderground v.1.15,2013-08-25 02:08:00,
2013-08-24 21:14:00,81.6,72.1,30.02,SE,130,9.0,13.0,73,0.00,,,0.00,Wunderground v.1.15,2013-08-25 02:14:00,
2013-08-24 21:19:00,81.4,71.9,30.02,SE,130,9.0,13.0,73,0.00,,,0.00,Wunderground v.1.15,2013-08-25 02:19:00,
2013-08-24 21:24:00,81.2,71.7,30.02,SE,128,9.0,11.0,73,0.00,,,0.00,Wunderground v.1.15,2013-08-25 02:24:00,
2013-08-24 21:29:00,80.9,71.4,30.03,SE,143,8.0,11.0,73,0.00,,,0.00,Wunderground v.1.15,2013-08-25 02:29:00,
2013-08-24 21:34:00,80.7,71.6,30.03,SE,145,9.0,13.0,74,0.00,,,0.00,Wunderground v.1.15,2013-08-25 02:34:00,
2013-08-24 21:40:00,80.5,71.4,30.03,SE,138,9.0,13.0,74,0.00,,,0.00,Wunderground v.1.15,2013-08-25 02:40:00,
2013-08-24 21:45:00,80.5,71.4,30.03,SE,130,9.0,12.0,74,0.00,,,0.00,Wunderground v.1.15,2013-08-25 02:45:00,
2013-08-24 21:51:00,80.2,71.2,30.03,SE,141,9.0,12.0,74,0.00,,,0.00,Wunderground v.1.15,2013-08-25 02:51:00,
2013-08-24 21:56:00,80.1,71.1,30.04,SE,136,9.0,12.0,74,0.00,,,0.00,Wunderground v.1.15,2013-08-25 02:56:00,
2013-08-24 22:02:00,79.9,71.3,30.04,SE,138,8.0,11.0,75,0.00,,,0.00,Wunderground v.1.15,2013-08-25 03:02:00,
2013-08-24 22:08:00,79.7,71.1,30.04,SE,133,8.0,12.0,75,0.00,,,0.00,Wunderground v.1.15,2013-08-25 03:08:00,
2013-08-24 22:13:00,79.6,71.0,30.04,SE,140,8.0,10.0,75,0.00,,,0.00,Wunderground v.1.15,2013-08-25 03:13:00,
2013-08-24 22:19:00,79.4,71.2,30.04,SE,133,8.0,10.0,76,0.00,,,0.00,Wunderground v.1.15,2013-08-25 03:19:00,
2013-08-24 22:24:00,79.2,71.0,30.04,SSE,153,7.0,11.0,76,0.00,,,0.00,Wunderground v.1.15,2013-08-25 03:24:00,
2013-08-24 22:30:00,79.0,71.2,30.05,SSE,151,8.0,8.0,77,0.00,,,0.00,Wunderground v.1.15,2013-08-25 03:30:00,
2013-08-24 22:36:00,78.8,71.0,30.05,SSE,155,8.0,13.0,77,0.00,,,0.00,Wunderground v.1.15,2013-08-25 03:36:00,
2013-08-24 22:42:00,78.9,71.1,30.05,SSE,155,8.0,11.0,77,0.00,,,0.00,Wunderground v.1.15,2013-08-25 03:42:00,
2013-08-24 22:48:00,78.9,71.1,30.05,SE,139,9.0,13.0,77,0.00,,,0.00,Wunderground v.1.15,2013-08-25 03:48:00,
2013-08-24 22:53:00,78.8,71.0,30.05,SSE,155,9.0,13.0,77,0.00,,,0.00,Wunderground v.1.15,2013-08-25 03:53:00,
2013-08-24 22:58:00,78.7,70.9,30.05,SSE,153,9.0,15.0,77,0.00,,,0.00,Wunderground v.1.15,2013-08-25 03:58:00,
2013-08-24 23:01:00,78.6,70.8,30.05,SE,142,10.0,13.0,77,0.00,,,0.00,Wunderground v.1.15,2013-08-25 04:01:00,
2013-08-24 23:02:00,78.6,70.8,30.05,SE,128,10.0,13.0,77,0.00,,,0.00,Wunderground v.1.15,2013-08-25 04:02:00,
2013-08-24 23:03:00,78.6,70.8,30.05,SE,138,10.0,13.0,77,0.00,,,0.00,Wunderground v.1.15,2013-08-25 04:03:00,
2013-08-24 23:04:00,78.6,70.8,30.05,SE,139,10.0,13.0,77,0.00,,,0.00,Wunderground v.1.15,2013-08-25 04:04:00,
2013-08-24 23:10:00,78.5,71.1,30.05,SE,146,10.0,12.0,78,0.00,,,0.00,Wunderground v.1.15,2013-08-25 04:10:00,
2013-08-24 23:13:00,78.4,71.0,30.05,SSE,161,10.0,14.0,78,0.00,,,0.00,Wunderground v.1.15,2013-08-25 04:13:00,
2013-08-24 23:19:00,78.3,70.9,30.05,SE,142,10.0,14.0,78,0.00,,,0.00,Wunderground v.1.15,2013-08-25 04:19:00,
2013-08-24 23:24:00,78.2,70.8,30.06,SSE,149,10.0,13.0,78,0.00,,,0.00,Wunderground v.1.15,2013-08-25 04:24:00,
2013-08-24 23:30:00,78.1,70.7,30.06,SSE,150,9.0,12.0,78,0.00,,,0.00,Wunderground v.1.15,2013-08-25 04:30:00,
2013-08-24 23:35:00,78.0,70.6,30.06,SE,136,9.0,12.0,78,0.00,,,0.00,Wunderground v.1.15,2013-08-25 04:35:00,
2013-08-24 23:41:00,77.9,70.9,30.06,SE,138,9.0,13.0,79,0.00,,,0.00,Wunderground v.1.15,2013-08-25 04:41:00,
2013-08-24 23:47:00,77.8,70.8,30.06,SSE,148,8.0,13.0,79,0.00,,,0.00,Wunderground v.1.15,2013-08-25 04:47:00,
2013-08-24 23:52:00,77.6,70.6,30.06,SSE,154,8.0,11.0,79,0.00,,,0.00,Wunderground v.1.15,2013-08-25 04:52:00,
2013-08-24 23:57:00,77.5,70.5,30.06,SSE,155,8.0,11.0,79,0.00,,,0.00,Wunderground v.1.15,2013-08-25 04:57:00,